Weather in Kara-Khaak

Russia / Tyva Republic     51°53′14″N   94°27′28″E
temp.,
°C
wind,
m/s
gust,
m/s
humid.,
%
clouds,
%
prec.,
mm/h
press.,
hPa
HPBL,
m
5 march, fri
fri501:00−16e227332 0.0 103321
04:00−16e22844 0.0 103221
07:00−17ese228735 0.0 103121
10:00−12s228550 0.0 1028111
13:00−10s228575 0.0 1025222
16:00−8sw228599 0.0 1023152
19:00−11ssw1187100 0.0 102621
22:00−11e1294100 0.3 103024
6 march, sat
sat601:00−15s019689 0.3 103420
04:00−16se129483 0.0 103520
07:00−15se229191 0.0 103628
10:00−11s2289100 0.0 1032122
13:00−9ssw2291100 0.0 1029211
16:00−8s1191100 0.0 1025148
19:00−12ese1191100 0.0 102721
22:00−11se1282100 0.0 102721
7 march, sun
sun701:00−13se128399 0.0 102721
04:00−14se128768 0.0 102622
07:00−16se119280 0.0 102721
10:00−11s229399 0.0 1026112
13:00−9ssw2292100 0.0 1024189
16:00−8ssw1191100 0.0 1024146
19:00−10se0191100 0.0 102621
22:00−11ne0184100 0.0 102821
8 march, mon
mon801:00−13ese227883 0.0 102921
04:00−15ese128227 0.0 102921
07:00−14ese117938 0.0 103121
10:00−10ssw118264 0.0 102882
13:00−7ssw228745 0.0 1025188
16:00−6s229045 0.0 1023153
19:00−11se119331 0.0 102421
22:00−12ese11849 0.0 102521
9 march, tue
tue901:00−12se118137 0.0 102521
04:00−12ese1184100 0.0 102621
07:00−11nnw1188100 0.0 102921
10:00−9ssw2291100 0.0 1029133
13:00−7ssw1192100 0.0 1028191
16:00−6s229258 0.0 1027195
19:00−11e119761 0.0 102921
22:00−10e118597 0.0 103021